Flag for Germany Weather past 2 weeks in Wiesbaden, Hesse, Germany

Now
75 °F

Partly sunny.


Feels Like: 78 °F
Forecast: 61 / 77 °F
Wind: 7 mph from North

Location: Wiesbaden Airport

Current Time: Jul 24, 2014 at 8:55:34 PM

Latest Report: Jul 24, 2014 at 7:58 PM


Visibility: N/A

Pressure: 29.92 "Hg

Humidity: 50%

Dew point: 55 °F

Location of WiesbadenLocation

Historic Weather in Wiesbaden — Graph

°F

Wiesbaden temperature yesterday

Maximum temperature yesterday: 84 °F (at 4:58 PM)
Minimum temperature yesterday: 68 °F (at 4:58 AM)
Average temperature yesterday: 77 °F

Past Weeks' High & Low Weather Summary

 TemperatureHumidityPressure
High92 °F (Jul 19, 4:58 PM)100% (Jul 10, 12:00 AM)30.19 "Hg (Jul 10, 12:00 AM)
Low55 °F (Jul 10, 12:00 AM)25% (Jul 18, 6:58 PM)29.72 "Hg (Jul 9, 6:59 PM)
Average73 °F67%29.95 "Hg
* Reported Jul 9 6:59 PM — Jul 24 6:58 PM, Wiesbaden, Weather by CustomWeather, © 2014

Note: Actual official high and low records may vary slightly from our data, if they occured in-between our weather recording intervals... More about our weather records

Advertising

Wiesbaden weather history for previous 24 hours

 ConditionsComfort  
Time TempWeatherWind HumidityBarometerVisibility
6:58 PM
Jul 24
75 °FSunny.3 mph45%29.89 "HgN/A
5:58 PM77 °FPassing clouds.8 mph42%29.90 "HgN/A
4:58 PM80 °FPassing clouds.6 mph45%29.89 "HgN/A
3:58 PM81 °FPassing clouds.7 mph39%29.90 "HgN/A
2:58 PM81 °FScattered clouds.7 mph42%29.90 "HgN/A
1:58 PM81 °FPassing clouds.9 mph42%29.91 "HgN/A
12:58 PM79 °FPassing clouds.12 mph45%29.93 "HgN/A
11:55 AM78 °FSunny.13 mph47%29.93 "HgN/A
10:55 AM77 °FPassing clouds.12 mph44%30.15 "HgN/A
9:58 AMN/ASunny.12 mphN/AN/AN/A
8:58 AM73 °FSunny.7 mph55%29.93 "HgN/A
7:58 AM70 °FSunny.2 mph61%29.93 "HgN/A
6:58 AM68 °FPassing clouds.1 mph64%29.91 "HgN/A
5:58 AM68 °FClear.10 mph60%29.91 "HgN/A
4:58 AM69 °FClear.6 mph58%29.91 "HgN/A
3:58 AM70 °FPassing clouds.6 mph56%29.93 "HgN/A
2:58 AM72 °FClear.7 mph53%29.94 "HgN/A
1:58 AM73 °FPassing clouds.8 mph50%29.96 "HgN/A
12:58 AM73 °FPassing clouds.8 mph53%29.95 "HgN/A
11:58 PM
Jul 23
75 °FClear.8 mph54%29.95 "HgN/A
10:58 PM76 °FClear.9 mph52%29.96 "HgN/A
9:58 PM77 °FSunny.3 mph51%29.96 "HgN/A
8:58 PM79 °FSunny.5 mph48%29.95 "HgN/A
Weather by CustomWeather, © 2014

See weather overviewHow to use our weather pages